This is the latest recevied weather packets stored in our database for station/object DO1TOB-60. If no packets are shown the sender has not sent any weather packets the latest 1 day(s).
| Time | Temp. | Humidity | Pressure | Rain* | Wind** | Luminosity | Snow |
|---|---|---|---|---|---|---|---|
| 1777960586 | 11.67° C | 95% | 1010.6 hPa | 0 mm | 1.34 m/s, 223° | - | - |
| 1777960452 | 11.67° C | 95% | 1010.6 hPa | 0 mm | 0.45 m/s, 222° | - | - |
| 1777960272 | 11.67° C | 95% | 1010.6 hPa | 0 mm | 0.45 m/s, 222° | - | - |
| 1777960022 | 11.67° C | 95% | 1010.6 hPa | 0 mm | 0.45 m/s, 222° | - | - |
| 1777959902 | 11.67° C | 95% | 1010.6 hPa | 0 mm | 0.89 m/s, 224° | - | - |
| 1777959782 | 11.67° C | 95% | 1010.6 hPa | 0 mm | 0.45 m/s, 224° | - | - |
| 1777957892 | 11.11° C | 95% | 1010.7 hPa | 0 mm | 0.45 m/s, 223° | - | - |
| 1777957832 | 11.11° C | 95% | 1010.7 hPa | 0 mm | 0.45 m/s, 223° | - | - |
| 1777957772 | 11.11° C | 95% | 1010.7 hPa | 0 mm | 0.89 m/s, 223° | - | - |
| 1777956792 | 11.11° C | 95% | 1010.7 hPa | 0 mm | 0.89 m/s, 225° | - | - |
| 1777955172 | 11.11° C | 94% | 1010.9 hPa | 0 mm | 0.89 m/s, 226° | - | - |
| 1777954332 | 11.11° C | 94% | 1010.9 hPa | 0 mm | 0.45 m/s, 164° | - | - |
| 1777954212 | 11.11° C | 94% | 1010.9 hPa | 0 mm | 0.45 m/s, 163° | - | - |
| 1777952412 | 11.11° C | 94% | 1011.1 hPa | 0 mm | 0.45 m/s, 163° | - | - |
| 1777949712 | 11.11° C | 95% | 1011.4 hPa | 0 mm | 0.45 m/s, 165° | - | - |
| 1777948152 | 11.11° C | 95% | 1011.5 hPa | 0 mm | 0.45 m/s, 162° | - | - |
| 1777947312 | 11.11° C | 95% | 1011.6 hPa | 0 mm | 0.89 m/s, 163° | - | - |
| 1777947132 | 11.11° C | 95% | 1011.6 hPa | 0 mm | 0.45 m/s, 163° | - | - |
| 1777946892 | 11.11° C | 95% | 1011.6 hPa | 0 mm | 0.45 m/s, 167° | - | - |
| 1777946352 | 11.11° C | 95% | 1011.7 hPa | 0 mm | 0.45 m/s, 161° | - | - |
| 1777946172 | 11.11° C | 95% | 1011.7 hPa | 0 mm | 1.34 m/s, 160° | - | - |
| 1777946112 | 11.11° C | 95% | 1011.7 hPa | 0 mm | 0.89 m/s, 161° | - | - |
| 1777946052 | 11.11° C | 95% | 1011.8 hPa | 0 mm | 0.89 m/s, 165° | - | - |
| 1777945993 | 11.11° C | 95% | 1011.7 hPa | 0 mm | 0.89 m/s, 165° | - | - |
| 1777945812 | 11.11° C | 95% | 1011.7 hPa | 0 mm | 0.45 m/s, 171° | - | - |
* Rain latest hour (hover to see other rain measurements)
** Current wind speed in m/s (hover to see current wind gust speed)